Location: ??
(34.9170°N, 135.5016°E)
Time: 15:11:05
(UTC+00:00)

S-56A Canister/Altair - Pass Details

Date: 09 March 2021
Orbit: 632 x 2500 km, 38.9° (Epoch: 16 April)

Event Time Altitude Azimuth Distance (km) Brightness Sun altitude
Rises 08:56:38 0° 292° (WNW) 6,112 13.4 -0.1°
Reaches altitude 10° 09:00:38 10° 290° (WNW) 5,156 13.1 -0.9°
Maximum altitude 09:15:24 61° 215° (SW) 2,583 10.4 -3.9°
Drops below altitude 10° 09:27:33 10° 139° (SE) 4,304 11.0 -6.4°
Sets 09:30:36 0° 135° (SE) 5,080 11.3 -7.0°
